Temp
9 9 9 9 9 8 8 8 8 8 8 8 8 8 8 8 7 7 7 6 6 6 6 6 6 6 7 7 7 7 7 7 7 7 7 7 7 7 7 7 7 7 7
8 8 8 9 9 8 8 8 8 7 7 7 7 7 8 8 7 7 7 6 6 6 6 6 6 6 7 7 7 7 7 7 7 7 7 7 7 7 7 7 7 7 7
8 8 8 8 8 8 8 8 8 7 7 7 7 7 7 7 7 7 7 7 6 6 6 6 5 6 6 7 7 7 7 7 7 7 7 7 7 7 7 7 7 7 7
8 8 8 8 8 8 8 8 8 8 7 6 7 7 7 7 7 7 7 7 7 6 5 5 5 6 6 6 6 7 7 7 7 7 7 7 7 7 7 7 7 7 7
8 8 8 8 8 8 8 8 8 7 7 6 6 7 7 7 7 7 7 7 7 6 6 5 5 6 6 6 6 6 7 7 7 7 7 7 7 7 7 7 7 7 7
8 8 8 7 8 8 7 8 8 7 7 6 6 6 6 6 6 6 6 6 7 6 5 5 5 5 6 6 6 6 6 6 7 7 7 7 7 7 7 7 7 7 7
8 8 8 8 7 8 7 7 7 7 6 6 6 6 6 6 6 6 6 6 6 6 6 5 5 6 5 5 6 6 6 6 6 7 7 7 7 7 7 7 7 7 7
7 7 7 7 7 8 7 7 7 7 7 6 6 6 6 6 6 6 6 5 6 6 6 5 5 5 5 5 5 6 6 6 6 6 6 6 6 7 7 7 7 7 7
7 7 7 7 7 7 7 7 7 7 7 6 6 6 6 6 6 6 5 5 5 5 5 5 4 4 5 5 5 5 5 6 6 6 6 6 6 6 7 7 7 7 7
7 7 7 6 6 6 7 7 7 7 7 7 6 6 6 6 6 5 5 5 5 5 5 4 4 4 4 4 5 5 5 5 5 6 6 6 6 6 6 7 7 7 7
7 7 7 6 6 6 6 6 6 7 7 7 7 6 6 5 5 5 5 5 5 5 4 4 4 4 4 4 5 5 4 5 5 6 6 6 6 6 6 6 6 6 6
7 6 6 6 6 6 6 6 6 6 7 7 6 6 6 5 5 5 5 5 5 4 4 4 5 4 4 4 4 3 3 4 5 5 5 5 6 6 6 6 6 6 6
6 5 5 6 6 6 6 6 6 6 6 6 6 6 6 5 5 4 5 5 5 4 4 4 4 4 4 4 4 3 3 4 4 4 5 5 5 5 5 6 6 6 6
6 6 5 5 6 6 6 6 6 6 6 6 6 6 6 5 4 4 5 5 5 4 5 4 4 4 4 3 3 2 2 4 4 4 5 5 5 5 5 5 5 5 5
5 6 6 6 6 6 6 5 6 5 5 5 5 5 5 5 4 4 5 5 4 4 4 4 4 2 3 3 3 3 2 3 4 4 4 4 4 4 4 4 4 4 4
5 5 6 5 5 5 5 5 5 5 5 5 5 5 5 4 3 3 4 4 4 4 3 3 2 1 2 2 2 2 1 2 2 3 4 4 4 4 4 3 3 4 4
4 4 5 5 5 5 5 5 5 4 4 5 4 4 4 4 3 2 4 4 4 3 3 3 3 2 1 1 2 1 1 1 2 2 3 4 4 4 4 4 3 3 3
3 3 4 4 4 4 4 4 4 3 4 4 4 4 4 4 3 3 3 4 3 3 2 2 2 3 3 3 2 1 1 2 2 3 3 4 4 3 3 3 3 3 3
2 2 3 3 4 4 3 4 4 4 4 3 3 4 3 4 3 3 2 3 3 2 2 2 2 2 3 2 2 1 2 2 3 3 3 2 1 2 3 4 3 2 3
1 1 2 2 3 3 3 3 3 4 3 3 3 4 3 4 3 2 2 2 3 2 2 2 2 2 2 3 2 1 2 2 2 2 2 2 2 2 2 3 3 2 2
1 1 1 1 1 2 2 2 2 3 4 2 2 3 3 2 2 2 2 1 2 2 2 2 2 2 2 2 2 2 2 2 2 2 2 2 2 2 2 2 1 1 2
-0 -0 -0 0 0 1 1 1 1 2 1 2 1 2 2 1 2 3 2 2 2 2 2 2 2 2 1 2 2 2 2 2 2 2 2 2 1 2 2 2 1 2 1
-2 -1 -1 -0 -0 -0 0 -0 0 0 1 1 1 1 2 2 2 1 2 2 2 2 2 2 2 2 2 2 2 1 1 1 1 1 2 2 2 2 2 1 1 1 1
-4 -3 -3 -2 -1 -1 -1 -1 -1 -2 -0 -0 0 1 1 1 -0 0 2 0 1 1 2 1 2 1 2 2 2 1 1 2 3 3 2 1 1 1 1 0 1 1 1
-5 -5 -5 -4 -5 -3 -2 -1 -1 -1 -2 -2 -1 -0 -0 1 1 -0 0 1 1 0 1 1 1 1 1 1 1 1 1 1 1 1 2 1 0 1 1 1 1 1 0
-5 -5 -5 -5 -5 -5 -4 -3 -3 -2 -1 -1 -1 -1 -1 -1 -0 -0 0 -1 0 -0 -0 0 0 1 1 1 1 1 2 1 1 1 1 1 0 1 0 1 0 0 0
Height
3099 3100 3101 3100 3101 3103 3103 3103 3103 3105 3108 3110 3113 3115 3117 3119 3120 3122 3124 3126 3128 3128 3130 3132 3133 3136 3138 3138 3141 3144 3146 3147 3149 3150 3151 3152 3153 3154 3154 3155 3156 3157 3157
3097 3098 3098 3099 3099 3101 3103 3102 3103 3104 3106 3109 3111 3114 3115 3118 3120 3122 3124 3125 3127 3128 3128 3132 3134 3136 3138 3139 3141 3144 3146 3148 3150 3151 3153 3154 3155 3156 3157 3157 3159 3159 3160
3094 3096 3097 3097 3098 3099 3101 3102 3102 3104 3106 3107 3110 3112 3115 3116 3119 3121 3123 3125 3126 3128 3126 3132 3134 3136 3138 3139 3142 3145 3147 3149 3151 3153 3154 3156 3157 3158 3159 3160 3161 3162 3162
3093 3093 3094 3096 3097 3097 3099 3100 3101 3102 3104 3107 3108 3110 3112 3115 3117 3119 3122 3124 3126 3128 3127 3125 3134 3136 3138 3140 3143 3146 3148 3150 3152 3154 3156 3157 3159 3160 3161 3162 3163 3164 3165
3093 3093 3093 3094 3096 3096 3097 3098 3099 3100 3103 3105 3107 3109 3111 3112 3115 3118 3120 3123 3125 3127 3126 3127 3130 3134 3137 3140 3142 3145 3147 3150 3152 3155 3157 3158 3160 3161 3162 3164 3165 3166 3167
3090 3091 3092 3092 3093 3095 3097 3097 3097 3098 3100 3103 3106 3108 3110 3111 3113 3115 3118 3121 3123 3126 3126 3126 3131 3134 3137 3139 3141 3144 3147 3149 3152 3154 3157 3159 3160 3162 3164 3165 3166 3167 3169
3084 3086 3088 3090 3092 3093 3094 3095 3096 3097 3097 3100 3103 3106 3108 3111 3112 3114 3116 3117 3121 3123 3125 3127 3130 3133 3136 3138 3140 3143 3146 3148 3151 3154 3157 3159 3160 3162 3164 3166 3167 3169 3170
3079 3081 3084 3086 3088 3090 3092 3093 3094 3095 3096 3097 3099 3102 3105 3108 3110 3112 3115 3115 3117 3120 3123 3126 3129 3131 3134 3136 3138 3142 3145 3147 3150 3153 3157 3159 3160 3162 3164 3166 3168 3170 3171
3073 3075 3078 3081 3083 3086 3088 3089 3091 3093 3094 3096 3097 3099 3102 3104 3106 3109 3111 3113 3115 3117 3121 3121 3125 3128 3131 3134 3137 3140 3143 3146 3148 3152 3155 3157 3159 3162 3163 3166 3168 3170 3172
3066 3069 3072 3074 3077 3080 3083 3085 3087 3089 3091 3092 3095 3096 3099 3100 3103 3105 3108 3109 3112 3114 3117 3118 3120 3123 3126 3131 3134 3138 3141 3144 3146 3150 3154 3156 3158 3161 3163 3165 3168 3170 3172
3061 3064 3068 3071 3074 3076 3078 3080 3083 3086 3088 3090 3092 3094 3095 3096 3099 3101 3103 3105 3108 3108 3110 3111 3114 3116 3121 3127 3131 3134 3139 3142 3144 3148 3151 3155 3157 3159 3161 3164 3166 3169 3171
3054 3058 3061 3064 3067 3070 3072 3075 3078 3080 3083 3086 3088 3090 3093 3093 3094 3097 3099 3101 3102 3103 3104 3106 3105 3111 3117 3120 3126 3129 3134 3138 3141 3146 3149 3152 3155 3158 3159 3163 3165 3168 3170
3047 3050 3054 3057 3060 3063 3066 3069 3073 3075 3078 3081 3083 3086 3089 3090 3091 3093 3095 3097 3097 3098 3099 3098 3098 3104 3111 3115 3119 3127 3133 3136 3139 3142 3146 3150 3153 3155 3157 3160 3163 3166 3169
3041 3041 3044 3047 3052 3055 3058 3062 3066 3069 3072 3075 3079 3082 3085 3087 3089 3091 3092 3093 3092 3093 3092 3093 3096 3101 3104 3110 3115 3121 3127 3134 3137 3140 3144 3147 3151 3153 3156 3158 3161 3164 3167
3030 3034 3037 3041 3044 3049 3052 3054 3058 3062 3067 3071 3073 3077 3080 3082 3086 3090 3090 3089 3090 3091 3093 3093 3093 3096 3103 3107 3111 3117 3124 3131 3134 3139 3142 3145 3148 3151 3153 3155 3159 3162 3165
3022 3028 3031 3035 3038 3042 3045 3049 3052 3056 3060 3065 3068 3072 3075 3078 3081 3085 3088 3088 3088 3090 3091 3092 3093 3094 3103 3106 3110 3114 3120 3128 3132 3135 3139 3142 3145 3147 3149 3152 3155 3160 3163
3015 3020 3026 3030 3033 3036 3038 3042 3046 3050 3053 3057 3061 3065 3070 3073 3076 3080 3084 3085 3087 3087 3088 3089 3091 3096 3100 3106 3109 3112 3118 3122 3128 3132 3136 3140 3141 3140 3146 3148 3151 3156 3159
3009 3013 3019 3023 3027 3029 3031 3034 3039 3044 3047 3051 3055 3058 3063 3068 3072 3076 3079 3081 3083 3085 3086 3089 3091 3094 3100 3102 3108 3111 3116 3119 3124 3127 3131 3135 3131 3136 3141 3145 3149 3151 3155
3001 3005 3010 3015 3019 3023 3025 3028 3031 3035 3040 3041 3047 3052 3057 3061 3066 3070 3074 3078 3080 3081 3085 3088 3089 3093 3094 3097 3102 3107 3112 3116 3119 3124 3127 3128 3125 3134 3140 3142 3147 3150 3154
2990 2995 3000 3006 3011 3015 3018 3022 3025 3026 3030 3036 3041 3045 3051 3055 3058 3065 3068 3072 3077 3080 3083 3086 3088 3089 3093 3095 3100 3107 3112 3114 3117 3121 3123 3127 3129 3134 3138 3143 3144 3149 3152
2981 2985 2990 2996 3001 3006 3009 3013 3015 3017 3021 3028 3034 3038 3044 3046 3053 3058 3062 3067 3070 3075 3080 3084 3087 3089 3091 3093 3097 3103 3108 3111 3115 3118 3121 3123 3126 3131 3136 3140 3139 3145 3147
2973 2977 2982 2987 2991 2997 3000 3004 3008 3010 3011 3019 3025 3030 3035 3041 3046 3049 3054 3059 3064 3067 3072 3078 3082 3084 3086 3089 3092 3099 3102 3108 3110 3114 3118 3118 3123 3127 3130 3133 3136 3139 3143
2966 2970 2975 2980 2984 2988 2991 2995 2998 3001 3004 3008 3016 3023 3028 3033 3038 3044 3046 3050 3051 3056 3064 3071 3076 3080 3083 3086 3090 3092 3096 3097 3104 3108 3112 3113 3117 3120 3124 3128 3131 3135 3139
2961 2964 2968 2973 2977 2981 2985 2986 2988 2993 2995 3000 3008 3013 3021 3025 3027 3032 3038 3041 3042 3046 3054 3061 3068 3073 3077 3081 3085 3087 3091 3097 3099 3104 3108 3110 3114 3117 3119 3122 3125 3129 3133
2952 2956 2961 2965 2969 2975 2978 2979 2980 2985 2988 2992 2998 3005 3011 3017 3023 3028 3030 3034 3036 3040 3044 3045 3056 3064 3068 3074 3077 3081 3085 3090 3095 3099 3102 3103 3107 3112 3115 3117 3119 3123 3126
2944 2948 2953 2958 2963 2967 2970 2972 2973 2977 2980 2985 2990 2995 3003 3009 3012 3018 3024 3026 3031 3034 3040 3040 3047 3057 3059 3063 3066 3070 3076 3082 3086 3089 3094 3098 3102 3102 3107 3111 3112 3116 3119
Wind_Speed
14 13 11 9 6 7 7 8 11 15 17 16 14 13 13 13 15 15 15 16 18 19 18 20 18 16 16 18 18 18 20 21 21 21 21 21 21 22 22 22 20 20 20
14 13 13 9 6 3 6 7 10 15 17 17 16 15 14 13 14 16 17 17 19 19 21 21 19 18 18 19 20 19 22 22 22 21 20 21 21 21 21 21 20 20 20
14 14 12 8 5 2 5 7 7 13 17 17 17 16 15 15 14 16 17 18 20 21 24 21 20 20 19 20 20 19 22 22 21 21 21 19 20 20 20 20 19 19 19
11 12 13 10 7 5 6 7 6 11 16 17 18 18 17 16 16 17 18 19 21 22 23 23 19 18 19 20 21 21 23 23 22 21 20 19 19 19 19 18 18 17 17
10 12 12 11 9 7 8 8 7 11 15 17 18 19 19 18 19 18 19 19 21 21 20 23 22 19 20 21 22 23 24 25 23 22 20 19 18 18 17 17 16 16 15
23 19 16 14 11 9 11 9 8 11 14 16 17 19 20 20 21 20 21 21 22 23 21 22 22 22 22 23 23 25 25 26 25 24 22 20 19 17 16 15 14 13 13
23 27 24 22 18 14 13 12 10 12 16 16 16 18 18 19 21 22 23 23 24 26 26 26 25 25 24 24 25 26 27 27 26 25 23 21 18 17 16 15 13 12 11
25 23 24 26 25 24 18 16 14 13 15 17 17 17 16 18 21 23 24 25 26 28 29 29 29 28 27 26 27 27 28 28 28 26 24 22 20 18 16 15 13 12 11
27 25 25 25 23 21 22 20 18 16 16 18 19 19 19 19 21 24 26 28 28 29 31 30 32 32 31 31 29 28 29 29 28 28 27 24 22 20 18 16 14 12 11
32 30 28 29 25 26 22 24 22 19 18 19 20 20 19 19 21 24 26 31 31 32 33 33 36 36 35 34 33 31 30 30 28 29 27 24 22 21 20 17 16 14 12
35 32 27 25 25 26 26 24 25 23 20 20 21 20 19 19 20 22 23 25 29 37 38 36 39 41 40 37 38 34 32 30 30 28 28 25 24 22 21 19 17 15 14
36 32 29 29 27 29 27 28 29 27 24 21 20 20 19 19 20 21 21 23 27 29 39 42 38 42 44 44 43 43 37 32 30 29 28 27 26 24 22 20 19 18 16
34 34 33 33 31 28 28 31 30 30 27 24 21 21 20 19 20 20 19 18 21 25 34 45 50 44 41 45 42 44 37 34 32 29 29 28 25 24 23 22 21 20 19
39 39 40 38 35 32 29 32 33 34 31 28 25 22 20 19 19 22 17 15 16 23 33 41 53 59 41 44 42 44 39 35 30 27 30 28 26 24 23 21 21 21 20
42 44 42 40 38 34 31 32 36 37 35 32 29 25 22 19 19 21 18 13 15 13 24 36 43 33 38 44 47 44 38 32 28 29 29 28 27 27 26 24 22 21 21
42 43 43 41 39 38 36 35 36 40 38 34 32 28 25 22 22 23 20 17 13 19 23 21 34 36 35 41 40 41 47 42 33 31 31 32 31 32 28 29 28 24 24
41 41 38 39 41 42 42 41 36 40 38 39 35 32 28 25 25 24 23 21 15 18 22 25 21 25 19 33 39 33 38 35 34 33 32 30 30 34 32 30 30 30 27
41 41 38 37 38 40 39 38 40 39 36 38 38 36 33 29 28 27 25 23 18 16 24 28 23 14 22 17 38 36 37 33 32 32 34 33 36 28 23 24 26 26 28
44 43 41 40 40 41 38 37 38 40 40 32 38 37 36 35 32 31 29 24 22 19 22 30 27 23 29 26 33 34 29 30 31 31 30 33 21 22 28 32 26 30 26
48 49 46 45 44 45 44 41 41 41 42 49 38 41 37 38 37 34 32 29 28 27 23 25 25 31 30 31 31 30 27 34 39 37 34 33 26 26 28 26 35 31 27
50 51 48 44 42 43 41 38 42 43 44 51 43 40 32 36 37 36 32 35 34 32 30 28 27 29 31 38 36 33 31 32 39 39 41 38 32 29 29 29 26 25 30
47 47 45 43 39 38 40 38 41 45 46 48 45 46 39 45 41 42 38 40 40 39 38 37 36 35 30 42 42 38 35 32 38 39 42 44 37 44 33 34 38 34 33
44 44 43 41 39 37 39 40 39 42 47 42 51 45 44 48 55 50 56 47 45 46 41 41 41 39 40 39 37 35 36 38 36 36 33 41 39 41 41 41 30 36 39
38 38 38 40 37 35 35 35 38 39 47 45 43 37 50 43 30 51 45 51 54 46 47 47 43 40 41 44 44 39 38 35 35 34 37 45 49 41 39 43 38 37 33
39 37 38 38 33 32 30 27 28 36 43 38 52 46 49 43 57 53 44 48 43 52 56 58 46 44 46 48 44 43 42 40 42 38 35 44 37 38 41 45 46 43 33
34 32 31 29 30 33 36 35 31 26 34 42 46 50 42 52 54 47 43 40 51 45 58 49 50 50 50 50 52 46 46 43 45 38 40 50 41 41 40 44 44 38 41
Wind_Direction
229 229 229 261 269 287 276 255 228 215 204 202 203 203 206 209 199 199 194 192 197 194 194 181 175 174 175 163 165 159 150 143 138 134 131 126 123 120 118 114 111 112 110
206 224 242 245 232 289 314 278 229 214 206 202 204 205 201 214 205 206 203 200 200 198 188 186 180 177 172 168 169 165 156 151 145 143 137 132 128 122 118 117 116 114 109
218 223 227 217 213 244 294 318 259 221 210 207 206 208 207 208 209 209 209 207 203 198 190 186 184 179 174 173 172 171 163 160 154 152 146 141 134 127 123 119 117 112 112
218 201 195 202 213 235 261 288 269 230 219 215 210 212 211 207 214 209 212 215 212 207 188 185 189 185 181 180 178 176 170 168 165 161 155 152 146 138 132 126 120 116 113
235 213 211 227 247 252 254 258 243 223 221 220 220 217 214 211 211 214 213 214 216 208 200 185 188 195 190 188 187 182 177 175 173 170 167 163 158 149 142 136 130 124 120
255 243 233 240 252 249 252 251 244 220 214 219 220 222 222 220 218 212 214 214 218 215 203 197 197 203 196 194 192 187 183 181 181 178 177 175 171 163 156 148 141 134 129
264 249 246 245 248 248 239 240 244 225 209 211 219 224 227 228 225 219 214 214 217 219 219 209 206 208 202 199 195 191 190 188 187 186 184 182 183 174 172 163 157 151 144
252 250 250 249 252 244 240 235 234 232 222 216 217 218 227 228 225 225 224 218 216 220 218 212 208 209 208 205 203 196 195 194 194 193 192 190 190 188 187 178 170 167 162
252 248 244 244 240 243 234 229 230 230 229 226 220 222 232 231 227 227 226 226 224 221 219 216 211 211 208 211 209 204 200 200 200 198 196 196 198 196 196 189 183 178 176
251 250 248 239 233 232 232 228 227 229 229 226 226 225 229 231 230 229 233 232 229 227 224 219 216 214 212 209 204 204 206 206 206 203 199 201 203 203 203 194 194 187 184
247 251 247 241 239 234 233 231 225 228 227 230 230 232 228 226 230 230 234 237 242 237 222 217 216 214 214 211 206 200 210 210 209 203 203 203 205 203 204 201 198 194 194
242 243 243 243 246 237 236 232 226 224 227 228 232 235 235 227 229 230 235 239 246 242 235 220 214 218 215 211 208 203 202 207 209 205 206 205 206 205 208 206 203 204 200
235 232 232 237 239 237 237 232 229 225 224 229 228 232 237 233 229 221 227 246 255 245 241 220 220 217 212 211 207 203 202 207 210 203 205 207 207 208 209 208 206 202 199
238 236 236 236 237 238 237 231 227 225 225 225 227 228 232 234 228 223 229 243 250 235 235 225 224 228 219 208 204 198 199 206 201 205 205 204 202 203 202 200 200 198 194
226 237 237 238 241 238 235 234 227 225 225 225 226 226 227 228 223 225 230 242 234 215 222 218 217 228 218 213 205 202 194 197 194 206 199 198 199 203 201 199 198 197 193
232 230 236 242 243 244 245 239 233 226 223 225 227 225 225 224 221 224 236 244 250 224 225 235 224 225 215 228 203 206 200 194 197 203 202 200 201 200 207 198 193 192 187
233 236 235 242 251 253 252 248 237 226 229 224 225 224 223 221 223 223 230 236 246 235 234 201 194 200 189 212 200 211 203 192 197 210 204 205 202 201 214 200 194 189 190
236 238 240 244 248 253 253 249 240 227 230 227 225 224 221 220 222 223 224 230 235 238 219 190 189 195 194 185 208 206 192 201 197 200 205 203 205 187 199 199 200 198 194
242 242 244 246 247 249 250 249 244 234 220 225 222 223 223 218 220 222 224 223 221 210 212 222 238 199 185 191 208 207 204 213 202 197 202 209 220 192 188 183 201 194 193
246 250 250 249 246 246 248 247 241 239 226 230 232 233 229 223 216 220 219 222 209 211 212 207 205 190 196 195 193 196 212 209 203 207 211 210 217 227 215 202 196 205 200
246 244 244 243 242 241 242 242 241 239 232 224 232 230 228 233 226 214 227 222 215 213 209 205 203 206 207 202 196 204 213 214 212 215 222 225 219 222 222 222 230 243 206
235 237 239 240 240 240 243 240 238 231 231 217 219 223 229 236 232 230 225 222 219 218 216 215 212 214 208 205 202 209 211 213 216 223 226 215 213 229 215 220 244 216 214
232 233 235 238 243 241 242 241 235 230 226 223 225 230 233 237 232 226 233 221 212 211 220 221 222 218 214 212 214 216 213 211 210 219 215 205 199 214 228 219 229 221 226
230 227 233 237 238 240 239 236 232 230 221 225 224 226 233 235 229 217 220 232 226 215 217 222 223 218 222 216 220 227 224 229 218 219 227 231 235 216 218 242 242 245 209
230 228 230 233 232 236 235 240 232 226 223 223 228 228 239 234 237 248 236 226 225 241 223 210 221 216 220 220 224 226 228 227 228 237 234 223 221 239 241 242 243 233 228
230 236 236 233 236 235 239 246 250 237 230 227 229 233 238 236 239 240 232 254 242 225 226 214 219 218 222 219 224 225 228 233 234 242 235 234 242 241 237 233 230 244 244